Probability
11 13 14 14 16 20 21 20 16 14 14 14 12 10 8 8 9 10 10 8 5 3 4 5 7 8 8 6 5 6 6 5 5 6 6 5 3 3 2 2 2 1 0
13 15 15 14 15 17 18 18 18 16 16 16 15 12 8 7 8 9 9 8 5 2 3 4 6 8 9 8 7 8 8 7 6 6 7 6 3 2 1 1 1 0 0
15 17 17 15 14 14 14 17 19 20 19 18 16 11 7 6 7 8 9 9 5 3 3 5 6 8 10 11 10 9 9 8 7 7 8 7 5 3 1 0 0 0 0
16 18 18 17 15 14 14 16 20 22 21 19 16 10 6 5 6 7 8 8 6 5 6 8 8 8 10 12 11 9 8 7 7 7 8 8 7 6 3 0 0 0 0
16 17 18 19 18 16 15 17 20 21 19 18 16 13 9 7 6 6 7 6 6 7 8 9 9 9 10 11 11 10 8 6 6 7 7 7 6 6 3 1 0 0 0
15 15 18 20 20 18 17 18 20 19 17 15 15 14 10 9 8 8 8 7 6 6 6 6 7 9 9 10 10 10 8 7 6 6 5 4 3 3 2 2 1 0 0
13 14 18 21 22 20 19 19 20 19 16 14 14 13 11 10 11 11 9 8 6 4 4 5 6 8 8 8 8 9 8 7 6 5 3 2 1 2 2 1 1 0 0
11 13 17 20 22 22 21 23 22 21 18 15 14 15 14 12 12 11 9 7 5 5 5 5 6 7 7 7 7 8 8 7 5 3 2 1 1 3 3 1 1 0 0
11 12 14 18 19 20 21 22 22 21 19 16 17 18 17 15 13 12 9 7 6 6 7 6 6 6 6 6 7 7 7 5 3 2 2 2 2 3 3 2 1 0 0
12 11 13 15 17 19 20 20 19 20 20 20 20 20 19 17 16 15 12 10 8 7 7 7 6 6 6 6 6 5 4 3 3 1 1 2 2 1 2 2 1 0 0
13 13 13 15 17 19 20 19 19 20 21 22 22 21 19 17 17 17 14 12 11 8 7 8 8 7 6 5 3 2 1 2 3 2 1 1 1 1 1 1 1 0 0
13 14 15 16 18 19 19 19 17 17 18 18 19 19 17 15 16 15 12 10 10 8 8 9 10 8 5 3 1 1 1 3 3 2 1 0 0 1 0 0 0 0 0
13 15 17 17 18 18 18 18 15 12 12 13 15 15 15 15 15 13 10 7 7 8 7 9 10 8 4 2 1 2 3 3 3 2 1 1 1 1 0 0 0 0 0
14 17 20 20 19 19 19 17 14 11 11 12 13 14 14 15 14 12 9 8 8 7 7 8 9 7 4 2 2 3 4 4 3 1 1 1 1 0 0 0 0 0 0
17 19 21 21 20 19 19 18 16 15 13 12 14 15 16 16 15 12 10 10 11 10 10 10 8 7 5 3 3 4 5 5 4 2 1 1 1 0 0 0 0 0 0
17 18 20 20 19 18 18 17 17 17 14 12 13 15 16 16 15 14 15 15 15 15 14 11 9 8 6 3 2 3 5 7 7 5 2 0 0 0 0 0 0 0 0
12 14 16 17 17 17 17 16 16 16 14 12 12 14 15 15 15 16 18 19 18 17 14 10 9 8 6 2 0 2 5 7 8 7 4 2 1 1 2 1 1 1 1
8 10 13 16 18 17 16 15 15 15 15 14 12 12 13 14 16 17 18 18 17 16 13 11 11 10 5 1 0 1 4 6 6 6 5 3 2 2 2 2 2 3 3
8 10 13 15 17 17 16 14 14 14 14 13 12 12 13 14 16 17 16 16 17 16 14 13 13 12 6 2 0 1 5 7 8 8 5 3 2 2 2 2 3 4 4
12 13 14 14 16 17 16 15 14 13 11 10 11 14 16 16 16 17 17 16 16 15 13 12 12 12 9 3 0 2 7 11 12 12 9 4 2 1 0 2 3 3 3
15 15 14 14 16 18 17 15 13 11 10 10 13 16 19 18 19 19 19 18 15 13 12 10 9 10 9 5 1 2 6 11 15 15 12 7 2 0 0 1 2 1 1
14 14 14 15 16 18 18 15 11 10 11 13 15 17 19 18 18 19 19 17 14 11 10 9 8 9 8 4 1 1 2 7 12 14 12 7 2 0 0 0 0 0 0
12 13 14 15 15 17 16 13 10 11 13 15 16 18 18 17 16 17 16 16 14 11 9 8 7 8 7 5 2 1 0 3 8 9 7 4 1 0 0 0 0 0 0
12 13 14 15 14 14 13 11 10 13 15 17 18 19 19 18 16 15 15 15 14 11 9 8 6 6 6 6 3 2 1 2 4 5 3 2 1 0 0 0 1 1 1
13 14 16 16 15 14 11 10 11 15 17 18 19 19 19 19 17 15 13 12 11 10 8 7 5 4 4 4 3 3 2 3 3 4 4 3 2 2 1 1 3 3 3
13 15 17 18 16 14 12 10 12 16 19 20 20 19 19 19 16 14 11 9 8 7 6 5 5 4 3 2 3 3 2 2 2 4 6 6 5 4 3 3 4 5 5
Wind_Speed
6 6 7 7 8 8 9 9 8 7 6 5 5 5 5 4 4 4 5 5 4 4 4 3 3 3 3 3 3 3 4 3 2 2 2 2 2 2 1 2 1 1 1
6 6 6 6 8 9 9 9 8 8 7 5 4 4 4 4 4 3 4 5 5 4 5 4 4 3 2 3 4 3 3 2 3 3 3 2 4 3 2 2 3 2 1
5 6 6 7 7 8 8 7 7 7 6 6 4 4 4 3 4 4 4 5 5 5 4 4 4 3 3 3 4 4 4 3 3 3 3 2 1 3 4 3 2 2 2
5 6 6 6 7 7 7 7 7 7 6 6 6 7 5 5 4 4 4 4 5 5 5 4 4 4 4 4 5 5 4 4 3 3 3 3 2 2 2 4 4 3 3
5 6 6 6 6 6 6 6 6 7 7 7 6 6 6 5 3 4 3 4 4 4 4 4 4 4 4 4 5 4 5 4 4 3 3 3 2 4 3 2 3 3 3
4 4 5 5 6 6 6 6 6 6 6 7 7 7 6 5 4 4 4 4 3 3 4 4 4 5 4 5 5 5 6 5 4 4 3 3 3 3 3 2 3 3 2
3 4 4 5 5 6 6 6 6 6 6 6 6 6 6 6 6 5 5 4 3 3 3 4 4 4 4 5 5 5 5 5 5 4 4 3 3 3 3 3 2 2 2
3 3 4 4 5 5 6 6 6 6 5 5 5 5 5 4 4 5 4 4 3 3 3 4 5 5 5 5 5 5 5 4 5 5 4 4 4 3 3 3 3 3 3
3 3 3 4 4 5 5 6 6 5 5 5 4 4 4 4 4 4 4 4 3 3 4 4 4 5 4 5 5 4 4 4 5 5 5 5 3 3 4 4 4 4 4
3 3 3 3 4 4 5 4 5 5 4 4 4 3 4 4 4 4 4 3 4 3 4 5 5 5 5 5 4 4 4 4 4 3 3 4 4 3 4 4 4 4 4
3 3 3 4 5 5 5 4 4 4 3 3 3 3 3 4 4 4 4 4 4 4 5 5 5 5 5 5 5 5 5 5 5 5 5 5 5 3 4 4 4 4 3
4 4 4 4 4 4 4 4 4 4 3 3 3 3 2 3 3 4 3 4 4 4 5 5 5 5 5 5 6 6 6 6 6 6 5 6 4 4 4 4 4 3 3
3 4 4 4 4 4 3 3 3 3 3 3 3 3 3 3 3 3 3 3 4 4 4 5 5 5 5 6 6 6 6 6 6 5 5 5 5 4 4 4 4 4 4
3 3 3 4 4 3 3 3 3 3 3 3 3 3 3 3 3 2 3 3 4 4 4 5 5 5 6 6 6 6 6 6 6 5 5 5 4 4 4 4 4 4 4
3 3 3 3 3 3 3 3 2 2 3 3 3 3 3 3 2 2 2 3 3 4 4 4 4 5 5 5 6 6 7 6 6 5 6 5 3 3 3 3 3 4 4
3 3 2 3 3 3 3 3 3 2 3 3 3 2 2 3 3 3 2 3 3 3 3 4 4 4 3 2 3 5 6 6 6 6 5 6 6 5 5 3 3 3 4
2 2 2 2 2 2 3 3 3 3 3 3 3 3 3 3 3 3 3 3 3 3 3 4 4 4 3 2 4 5 6 6 6 6 6 6 5 7 6 6 7 5 5
2 1 1 2 2 2 2 3 3 3 3 3 3 2 2 3 3 3 3 3 3 3 3 4 4 4 3 4 5 5 7 6 6 6 6 6 5 5 5 6 6 6 6
1 1 1 1 2 1 2 2 2 3 3 2 2 2 2 3 3 3 3 3 3 3 4 4 5 5 4 4 5 6 6 5 6 6 6 6 6 4 5 7 6 6 6
1 1 1 1 1 1 1 2 2 2 2 2 2 3 3 3 4 4 4 3 4 4 4 4 4 5 5 5 5 7 6 5 5 5 6 5 5 6 6 7 7 7 6
1 1 1 1 1 1 2 2 2 2 3 3 3 3 3 4 4 4 4 4 4 4 4 4 5 5 4 6 7 7 6 5 5 5 5 5 7 7 8 8 7 5 5
1 1 1 0 1 1 2 2 1 2 2 2 2 3 3 3 2 3 3 4 4 4 4 4 5 4 4 4 6 7 8 6 5 5 4 3 7 8 8 7 5 5 6
1 1 1 1 2 2 2 1 1 2 2 2 2 2 3 3 2 3 3 4 4 4 3 4 4 3 3 4 5 7 7 7 6 4 2 1 5 7 7 8 7 7 7
2 2 2 2 2 2 2 2 2 2 2 3 3 2 3 3 3 3 3 3 3 3 4 4 4 3 3 3 4 4 5 6 6 5 3 5 6 6 5 5 7 7 6
1 2 2 2 2 2 2 3 3 3 3 3 3 3 3 3 3 3 3 4 3 3 4 4 4 4 4 1 1 3 4 5 4 4 4 4 5 6 6 6 6 6 6
2 2 2 2 2 2 2 3 3 3 3 3 3 3 3 3 3 3 3 3 4 3 4 5 5 4 2 1 2 4 5 5 4 5 5 5 6 7 6 6 6 6 6
Wind_Direction
176 175 181 180 176 175 176 179 180 173 177 179 187 189 193 200 201 204 196 199 206 210 232 235 202 220 198 198 189 191 187 201 202 207 195 180 175 181 190 217 216 192 189
170 170 175 181 182 182 183 182 183 179 185 183 192 196 201 214 209 210 188 201 202 209 218 225 218 207 193 199 202 205 213 207 200 229 228 200 179 182 187 191 190 206 201
174 172 181 185 186 186 186 183 181 178 187 183 189 189 193 216 207 205 200 203 203 209 227 216 224 206 209 197 212 210 218 218 207 231 257 248 208 165 168 183 186 192 206
179 181 183 183 184 183 178 175 172 173 182 190 196 200 207 213 211 213 202 199 203 209 212 210 211 215 219 200 213 208 220 227 223 215 246 277 321 254 173 179 180 188 202
186 188 186 181 180 174 170 166 166 173 181 193 197 204 219 219 206 205 197 211 198 206 210 206 204 209 221 219 228 206 223 224 238 236 226 223 222 246 240 194 189 192 194
179 177 171 170 167 167 167 164 163 173 180 192 199 206 218 219 208 203 201 208 199 202 205 208 209 217 222 218 221 213 218 228 229 241 240 235 235 235 245 223 210 200 183
166 167 167 166 163 167 171 167 165 172 180 187 199 205 213 212 212 212 208 214 209 202 202 218 221 227 222 219 218 211 222 222 221 227 237 241 246 253 256 256 238 228 195
156 161 164 167 162 161 168 167 169 174 178 185 195 201 206 212 212 215 222 215 222 212 198 218 226 230 223 217 208 214 212 215 224 229 235 249 241 241 238 251 250 239 218
140 142 151 160 157 156 160 170 170 169 177 185 188 193 201 213 216 208 219 218 218 215 204 213 220 225 220 216 211 218 213 212 224 226 218 236 238 242 245 248 252 256 251
131 133 139 151 151 150 148 158 161 167 174 182 193 189 194 207 215 215 212 220 225 223 214 211 212 211 207 206 212 216 211 213 222 237 236 242 241 235 238 239 244 253 266
135 139 145 147 147 147 148 152 157 161 170 182 191 189 198 209 212 215 217 216 223 220 215 209 209 205 203 201 210 222 212 215 216 225 222 228 244 236 236 229 232 238 245
129 136 141 142 148 151 154 157 159 167 171 173 183 184 195 210 217 216 219 215 219 221 215 211 212 213 209 205 209 219 214 217 219 221 223 228 225 224 240 236 234 229 235
125 132 141 147 151 150 153 155 161 164 165 168 173 176 190 199 215 224 221 213 216 222 224 218 215 214 214 212 212 217 217 218 221 222 223 228 227 226 229 238 234 225 215
138 145 150 153 151 151 156 161 163 163 168 174 177 175 189 201 210 216 222 217 215 218 224 225 223 218 216 216 217 218 217 219 221 222 224 225 225 226 227 225 231 234 228
153 158 158 147 149 151 157 166 171 172 180 190 191 189 191 196 198 204 212 220 220 216 219 224 224 223 219 220 225 225 218 217 218 218 220 218 216 227 241 246 224 223 231
169 165 162 150 150 154 165 174 184 189 192 201 205 204 205 204 205 204 214 224 224 217 216 219 225 225 229 203 233 249 234 224 218 218 218 208 195 196 211 246 271 269 245
173 174 169 159 162 169 182 184 185 187 192 205 216 215 217 219 220 217 216 226 225 223 224 225 228 229 224 186 213 241 243 233 226 219 219 222 197 201 207 204 210 221 239
182 174 160 154 157 164 174 177 178 185 195 207 219 218 226 227 229 229 230 234 231 230 233 233 233 229 209 188 207 227 232 234 230 226 223 224 214 208 221 218 211 215 213
189 177 160 148 141 149 170 177 183 193 202 213 226 231 234 231 232 235 238 239 233 232 236 235 235 233 210 186 201 224 228 224 224 223 220 222 216 192 225 228 223 226 228
108 142 150 137 138 156 179 179 176 197 217 227 233 239 240 235 238 235 234 233 232 232 235 235 238 234 222 188 198 223 235 226 226 216 215 213 222 191 206 228 227 229 234
129 144 150 146 177 201 181 186 204 227 239 244 237 237 239 237 238 234 231 228 233 234 237 236 236 232 225 190 195 217 243 233 232 224 219 204 182 194 207 232 239 238 249
144 136 140 182 230 229 206 201 228 246 240 236 227 227 237 243 238 226 230 233 233 231 232 231 236 225 210 199 196 207 234 267 247 243 238 200 170 193 206 220 231 234 246
184 193 202 226 235 236 235 236 245 264 255 239 235 234 244 251 254 241 231 225 222 234 234 231 233 234 216 187 186 203 222 245 252 257 276 176 172 191 205 214 216 222 235
202 214 218 222 231 233 246 250 251 255 254 247 245 248 250 253 251 250 243 243 235 240 244 248 247 243 230 217 192 200 209 219 230 240 213 190 197 219 231 207 208 222 234
241 238 240 240 246 253 258 259 255 249 250 251 251 251 250 253 259 258 266 259 256 271 270 269 263 261 255 253 309 248 221 220 220 222 218 216 209 213 215 217 219 222 221
248 250 254 267 279 281 274 272 262 252 252 254 258 257 257 256 255 256 255 241 250 251 252 266 276 276 271 243 245 243 242 238 213 222 228 224 222 223 221 220 219 220 227